Starlink 31645

operational
NORAD ID: 59264 Int'l Des: 2024-050 Owner: SPXS Country: US Constellation: starlink
LEOCIRCULAR

About Starlink 31645

Description loading...

Live Position

Loading 3D Globe...

Upcoming Passes

Altitude History

Altitude vs Time

uPlot chart will show altitude changes over time

Two-Line Element Set

1 59264U 24050L 25308.00281686 .00054726 00000-0 18448-2 0 9997
2 59264 53.1617 44.9171 0001223 70.0147 290.0986 15.30226735 91305
Epoch: Nov 4, 2025 • Age: 10 hours

Current Status

Altitude 479.8 km
Velocity 7.63 km/s
Sub-Earth Point 49.09°N, 88.26°W
Launch Date Mar 19, 2024
Age 1.6 years
Type internet

Technical Details

Classification Payload
Mass 730.00 kg
Dry Mass 700.00 kg
Total Mass 730.00 kg
Length 0.30 m
Diameter 4.10 m
Span 29.00 m
Shape Box + pan
Manufacturer SPXS
Bus Type Starlink V2M
Phase Status In Orbit
Owner/State SPXS/US

Large Constellations

Loading constellations...